| |
Missouri Department of Transportation

Social Media Facebook Twitter Flickr Blog YouTube RSS

Current AWOS Information

 
AWOS Home - General Info for all Airports
Current AWOS for all Airports - Current METAR for all Airports
Glossary - Disclaimer - Other Links


SULLIVAN--SULLIVAN REGIONAL--KUUV
 
Recent AWOS History
 
09/20/14     08:52 AM CDT      13:52 GMT
Air Temperature 71°F (22°C ) 1st Cloud Layer Clear
Dew Point 65°F (18°C) 2nd Cloud Layer  
Barometric Pressure 30.09 in Hg. 3rd Cloud Layer  
Wind Speed 9 mph (8 knots) Density Altitude  
Peak Wind Gusts   Variable Wind Directions  
Wind Direction Quadrant(200°) Variable Visibility  
Visibility 10 statute miles  

Thunderstorm and Precipitation Identification: 
Thunderstorm Remarks: 

Current METAR Record: METAR KUUV 201357Z AUTO 21009KT 10SM CLR 22/18 A3009 RMK AO2

 

 

 

About Us
How Do I...
Contact Us
Missouri Department of Transportation
Central Office
105 W. Capitol Avenue
Jefferson City, MO 65102
1-888-ASK-MODOT (275-6636)
1-866-831-6277 (Motor Carrier Services)
Drivers License Offices
horz_bar
| | |
Missouri State Government
© 2013 Missouri Department of Transportation. All Rights Reserved.   Privacy Policy.
 
 
 
 
RSS FeedYoutubeBlogFlickrTwitter Facebook